Content
SEND FEEDBACK

Daily
Averages
Monthly
Summary
United States of America

BERKELEY, MISSOURI


Home > North America > United States > Missouri
Elevation: 564 feet     Latitude: 38 45N     Longitude: 090 22W

WEATHER
 
SELECT A DAY
Number of Records: 203,416;   Date Range: 1/1/95 - 7/26/14
 
SHARE

PRINT THIS DATA

[ ← Previous Day ]
WEATHER ALMANAC - MAY 7, 2013
[ Next Day → ]
[ °C ]   °F
Weather ElementAverageHighLow
Temperature68.3 °F79 °F (4:51 pm)60.1 °F (1:51 am)
Dewpoint53.5 °F57 °F (8:51 am)50 °F (1:51 pm)
Humidity61.7 %83 % (1:51 am)36 % (4:51 pm)
Barometer30.00 in30.05 in (10:51 am)29.97 in (1:51 am)
Wind Speed2.8 mph9.2 mph (5:51 pm)
Weather ElementAverage
Visibility10 mi
Wind DirectionESE (97.3 °)

Weather ElementTotal
Precipitation---
Cooling Degree Days4.6 (Base 65)
Growing Degree Days19.6 (Base 50)
Averaged from 22 records on May 7, 2013
WEATHER CONDITIONS BREAKOUT
WIND DIRECTION BREAKOUT
WEATHER BY HOUR - MAY 7, 2013
[ °C ]   °F
Local TimeTemperatureDewpointHumidityBarometerVisibilityWind DirectionWind SpeedGust SpeedPrecipitationEventsConditions
1:51 AM60.1 °F55.0 °F83 %29.97 in10.0 miWest (270°)3.5 mphOvercast
2:51 AM61.0 °F55.0 °F81 %29.97 in10.0 miCalmOvercast
3:51 AM60.1 °F55.0 °F83 %29.97 in10.0 miCalmOvercast
4:51 AM60.1 °F54.0 °F80 %29.98 in10.0 miCalmOvercast
5:51 AM60.1 °F54.0 °F80 %29.99 in10.0 miCalmOvercast
6:51 AM60.1 °F55.0 °F83 %30.00 in10.0 miCalmMostly Cloudy
7:51 AM62.1 °F55.0 °F78 %30.01 in10.0 miCalmMostly Cloudy
8:51 AM64.0 °F57.0 °F78 %30.02 in10.0 miCalmScattered Clouds
9:51 AM69.1 °F55.9 °F63 %30.03 in10.0 miEast (80°)4.6 mphScattered Clouds
10:51 AM73.4 °F53.6 °F50 %30.05 in10.0 miNNE (30°)6.9 mphScattered Clouds
11:51 AM73.9 °F51.1 °F45 %30.03 in10.0 miNorth (350°)4.6 mphMostly Cloudy
12:51 PM75.9 °F51.1 °F42 %30.01 in10.0 miENE (70°)5.8 mphMostly Cloudy
1:51 PM73.9 °F50.0 °F43 %30.01 in10.0 miEast (90°)3.5 mphMostly Cloudy
2:51 PM75.0 °F53.1 °F46 %30.00 in10.0 miNW (320°)3.5 mphMostly Cloudy
3:51 PM77.0 °F52.0 °F42 %29.98 in10.0 miNW (310°)3.5 mphMostly Cloudy
4:51 PM79.0 °F50.0 °F36 %29.97 in10.0 miWNW (290°)5.8 mphMostly Cloudy
5:51 PM75.0 °F54.0 °F48 %29.97 in10.0 miESE (120°)9.2 mphScattered Clouds
6:51 PM73.9 °F53.1 °F48 %29.98 in10.0 miESE (110°)6.9 mphScattered Clouds
8:51 PM71.1 °F52.0 °F51 %29.98 in10.0 miEast (100°)3.5 mphScattered Clouds
9:51 PM69.1 °F53.1 °F57 %29.99 in10.0 miCalmPartly Cloudy
10:51 PM64.9 °F54.0 °F68 %29.99 in10.0 miCalmClear
11:51 PM63.0 °F54.0 °F72 %29.99 in10.0 miCalmClear
Hourly data recorded from KSTL, located miles away from Berkeley, Missouri







STORIES FROM OUR PARTNERS